sat.trackr.live / text

‹ back to catalog

STARLINK-37566

NORAD 68908 · 2026-097P

PAYLOAD ACTIVE UNKNOWN

§ Identity

Operator
Country
US
Launch date
2026-04-30
Launch site
AFWTR
Launch vehicle
Mass (kg)
RCS (m²)

Purposes: comms

External: N2YO · Heavens-Above · Gunter

§ Orbital elements

Epoch: 2026-09-19T08:34:28.390656Z

Period
93.90 min
Inclination
97.2819°
Eccentricity
0.0003196
Mean motion
15.33466751 rev/d
Perigee alt
463.3 km
Apogee alt
467.7 km
Semi-major
6,843.6 km
B*
3.8505e-4
RAAN
96.4672°
Arg perigee
115.8589°
Mean anomaly
244.2984°
Rev number
2,191

§ Raw data

STARLINK-375661 68908U 26097P   26262.35727304  .00012386  00000+0  38505-3 0  99972 68908  97.2819  96.4672 0003196 115.8589 244.2984 15.33466751 21916

JSON: /api/v1/satellites/68908 · /tle

For live sub-satellite position, see the globe view (requires WebGL).

§ Visibility from observer

Set your observer location to see the next 7 days of passes ≥ 10°. The values pass through the URL so the page stays shareable.

No JS? Fill the form by hand. The geolocation button needs JavaScript.